Summerville, SC

5:17 PM EDT on September 19, 2017 (GMT -0400)
Summerville

Weather History for KDYB - June, 2014

Change the Weather History Date:

Sunday, June 8, 2014

  Actual Average (KCHS) Record (KCHS)
Temperature  
Mean Temperature 76 °F -  
Max Temperature 84 °F 86 °F 98 °F (1986)
Min Temperature 68 °F 67 °F 53 °F (1998)
Cooling Degree Days 11    
Growing Degree Days 26 (Base 50)    
Moisture  
Dew Point 72 °F    
Average Humidity 87    
Maximum Humidity 100    
Minimum Humidity 66    
Precipitation  
Precipitation 0.00 in - - ()
Sea Level Pressure  
Sea Level Pressure 29.95 in    
Wind  
Wind Speed 4 mph (SE)    
Max Wind Speed 13 mph    
Max Gust Speed 17 mph    
Visibility 10 miles    
Events Rain , Thunderstorm    
Averages and records for this station are not official NWS values.
T = Trace of Precipitation, MM = Missing Value Source: NWS Daily Summary

Daily Weather History Graph

Daily Weather History Graph

Search for Another Location

Airport or City:

Trip Planner

Search our weather history database for the weather conditions in past years. The results will help you decide how hot, cold, wet, or windy it might be!

Date:

Astronomy

Jun. 08, 2014 Rise Set
Actual Time 6:11 AM EDT 8:28 PM EDT
Civil Twilight 5:43 AM EDT 8:57 PM EDT
Nautical Twilight 5:08 AM EDT 9:32 PM EDT
Astronomical Twilight 4:30 AM EDT 10:10 PM EDT
Moon 3:57 PM EDT (6/8) 2:49 AM EDT (6/8)
Length of Visible Light 15h 13m
Length of Day
14h 16m
Waxing Gibbous, 77% of the Moon is Illuminated
Jun 8
Waxing Gibbous
Jun 13
Full
Jun 19
Last Quarter
Jun 27
New
Jul 5
First Quarter

Hourly Weather History & Observations

Time (EDT) Temp. Heat Index Dew Point Humidity Pressure Visibility Wind Dir Wind Speed Gust Speed Precip Events Conditions
12:15 AM 69.8 °F - 69.8 °F 100% 29.99 in 10.0 mi Calm Calm - N/A   Clear
12:35 AM 69.8 °F - 69.8 °F 100% 30.00 in 10.0 mi Calm Calm - N/A   Clear
7:15 AM 68.0 °F - 68.0 °F 100% 29.98 in 7.0 mi Calm Calm - N/A   Mostly Cloudy
7:35 AM 69.8 °F - 69.8 °F 100% 29.97 in 10.0 mi Calm Calm - N/A   Clear
7:55 AM 71.6 °F - 71.6 °F 100% 29.97 in 10.0 mi Calm Calm - N/A   Clear
8:15 AM 77.0 °F - 71.6 °F 83% 29.97 in 10.0 mi SE 5.8 mph - N/A   Clear
8:35 AM 78.8 °F - 71.6 °F 78% 29.97 in 10.0 mi SE 9.2 mph - N/A   Clear
8:55 AM 78.8 °F - 71.6 °F 78% 29.97 in 10.0 mi ESE 6.9 mph - N/A   Clear
9:15 AM 78.8 °F - 71.6 °F 78% 29.97 in 10.0 mi SE 8.1 mph - N/A   Scattered Clouds
9:35 AM 80.6 °F 84.6 °F 71.6 °F 74% 29.96 in 10.0 mi SE 10.4 mph - N/A   Mostly Cloudy
9:55 AM 78.8 °F - 71.6 °F 78% 29.97 in 10.0 mi SE 6.9 mph - N/A   Mostly Cloudy
10:15 AM 80.6 °F 84.6 °F 71.6 °F 74% 29.96 in 10.0 mi SE 9.2 mph - N/A   Mostly Cloudy
10:55 AM 80.6 °F 84.6 °F 71.6 °F 74% 29.98 in 10.0 mi South 6.9 mph - N/A   Overcast
11:15 AM 80.6 °F 84.6 °F 71.6 °F 74% 29.99 in 10.0 mi South 6.9 mph - N/A   Mostly Cloudy
11:55 AM 82.4 °F 87.2 °F 71.6 °F 70% 29.99 in 10.0 mi SE 5.8 mph - N/A   Scattered Clouds
12:15 PM 84.2 °F 89.6 °F 71.6 °F 66% 29.99 in 10.0 mi SE 10.4 mph - N/A   Mostly Cloudy
12:35 PM 82.4 °F 87.2 °F 71.6 °F 70% 29.98 in 10.0 mi SE 10.4 mph - N/A   Overcast
12:55 PM 82.4 °F 87.2 °F 71.6 °F 70% 29.97 in 10.0 mi SE 12.7 mph 17.3 mph N/A   Overcast
1:35 PM 82.4 °F 86.3 °F 69.8 °F 66% 29.95 in 10.0 mi SSE 8.1 mph 16.1 mph N/A Thunderstorm Mostly Cloudy
1:55 PM 80.6 °F 83.9 °F 69.8 °F 70% 29.97 in 10.0 mi SSE 6.9 mph 17.3 mph N/A   Mostly Cloudy
2:15 PM 80.6 °F 84.6 °F 71.6 °F 74% 29.97 in 10.0 mi SSE 6.9 mph - N/A Rain , Thunderstorm Light Thunderstorms and Rain
2:35 PM 77.0 °F - 73.4 °F 89% 29.97 in 10.0 mi SSE 4.6 mph - N/A Rain , Thunderstorm Rain
2:55 PM 77.0 °F - 73.4 °F 89% 29.97 in 7.0 mi SE 5.8 mph - N/A Rain , Thunderstorm Thunderstorms and Rain
3:15 PM 73.4 °F - 73.4 °F 100% 29.97 in 5.0 mi SE 5.8 mph - N/A Rain , Thunderstorm Rain
3:35 PM 73.4 °F - 73.4 °F 100% 29.96 in 7.0 mi SE 3.5 mph - N/A Rain Light Rain
4:15 PM 75.2 °F - 75.2 °F 100% 29.95 in 10.0 mi SSE 4.6 mph - N/A   Overcast
4:35 PM 75.2 °F - 73.4 °F 94% 29.95 in 10.0 mi SSE 5.8 mph - N/A   Overcast
4:55 PM 77.0 °F - 73.4 °F 89% 29.95 in 10.0 mi SSE 4.6 mph - N/A   Overcast
5:15 PM 77.0 °F - 73.4 °F 89% 29.93 in 10.0 mi SSE 5.8 mph - N/A   Mostly Cloudy
5:35 PM 78.8 °F - 73.4 °F 83% 29.92 in 10.0 mi SSE 3.5 mph - N/A   Mostly Cloudy
5:55 PM 80.6 °F 85.4 °F 73.4 °F 79% 29.91 in 10.0 mi SSE 5.8 mph - N/A   Scattered Clouds
6:15 PM 80.6 °F 84.6 °F 71.6 °F 74% 29.91 in 10.0 mi ESE 4.6 mph - N/A   Scattered Clouds
6:35 PM 78.8 °F - 71.6 °F 78% 29.90 in 10.0 mi SE 5.8 mph - N/A   Clear
6:55 PM 77.0 °F - 71.6 °F 83% 29.91 in 10.0 mi SE 4.6 mph - N/A   Scattered Clouds
7:15 PM 77.0 °F - 71.6 °F 83% 29.91 in 10.0 mi SSE 3.5 mph - N/A   Clear
7:35 PM 77.0 °F - 71.6 °F 83% 29.92 in 10.0 mi Calm Calm - N/A   Clear
7:55 PM 77.0 °F - 71.6 °F 83% 29.92 in 10.0 mi Calm Calm - N/A   Clear
8:15 PM 77.0 °F - 71.6 °F 83% 29.91 in 10.0 mi SE 4.6 mph - N/A   Clear
8:35 PM 75.2 °F - 71.6 °F 89% 29.91 in 10.0 mi ESE 3.5 mph - N/A   Scattered Clouds
8:55 PM 73.4 °F - 73.4 °F 100% 29.91 in 10.0 mi SSE 3.5 mph - N/A   Clear
9:15 PM 73.4 °F - 73.4 °F 100% 29.91 in 10.0 mi Calm Calm - N/A   Clear
9:35 PM 73.4 °F - 73.4 °F 100% 29.92 in 10.0 mi Calm Calm - N/A   Clear
9:55 PM 73.4 °F - 73.4 °F 100% 29.93 in 10.0 mi Calm Calm - N/A   Scattered Clouds
10:15 PM 73.4 °F - 73.4 °F 100% 29.93 in 10.0 mi SE 3.5 mph - N/A   Overcast
10:35 PM 73.4 °F - 73.4 °F 100% 29.92 in 10.0 mi SE 3.5 mph - N/A   Mostly Cloudy
10:55 PM 73.4 °F - 73.4 °F 100% 29.92 in 10.0 mi Calm Calm - N/A   Mostly Cloudy
11:15 PM 73.4 °F - 73.4 °F 100% 29.93 in 10.0 mi Calm Calm - N/A   Scattered Clouds
11:35 PM 73.4 °F - 73.4 °F 100% 29.93 in 10.0 mi Calm Calm - N/A   Mostly Cloudy
11:55 PM 73.4 °F - 73.4 °F 100% 29.93 in 7.0 mi SSE 3.5 mph - N/A   Mostly Cloudy